Lapse_Rate
0.4 0.6 0.6 0.9 1.8 1.8 2.2 2.5 2.8 2.6 2.6 3.0 3.6 3.3 3.1 3.3 3.5 3.5 3.5 3.4 3.2 2.9 2.5 2.3 1.9 2.5 2.4 1.9 1.9 1.9 2.0 1.9
-0.1 1.0 1.4 1.4 1.7 1.8 2.1 2.6 2.8 2.8 2.6 2.4 3.2 2.8 3.0 3.3 3.2 3.4 3.2 3.3 3.4 3.1 2.6 2.2 1.7 1.4 1.7 1.8 1.5 1.2 1.5 1.9
0.2 0.8 0.9 1.8 1.9 1.6 2.0 2.5 2.8 2.9 2.7 2.4 2.3 2.2 2.5 2.9 2.8 3.3 3.4 3.2 3.1 2.5 2.0 1.8 1.7 1.6 2.0 1.9 0.7 0.7 1.1 1.5
0.7 1.2 1.5 1.8 1.8 1.6 1.3 2.1 2.7 3.2 2.7 2.2 1.8 1.6 1.8 1.9 2.6 3.1 3.3 3.1 2.5 2.3 2.0 1.5 0.7 0.2 0.7 0.1 -0.3 0.5 1.1 1.7
0.5 1.0 1.4 1.2 1.5 1.5 1.4 2.1 2.8 3.0 2.1 1.8 1.4 1.4 1.6 1.6 1.9 2.7 2.8 2.6 1.4 1.3 1.0 -0.7 -1.0 -1.5 -1.6 -1.1 -0.4 0.2 0.8 2.0
0.1 0.7 1.1 0.9 1.2 0.8 1.0 1.8 1.7 1.4 1.2 0.8 0.7 1.2 0.3 -0.1 0.3 0.8 0.6 0.3 -0.9 -1.1 -1.4 -1.6 -1.5 -1.4 -1.5 -1.6 -0.6 -0.3 0.3 1.4
0.2 0.8 0.9 1.1 0.7 1.0 1.5 2.5 2.0 1.6 0.9 0.4 0.3 0.5 -0.3 -0.3 -0.6 -0.2 -0.2 -0.4 -1.1 -2.2 -1.9 -1.6 -1.7 -1.7 -1.6 -1.3 -1.3 -0.7 0.2 1.1
0.1 0.5 0.6 1.3 1.5 1.5 1.8 1.9 1.9 1.4 1.3 1.4 0.1 -0.4 -0.4 -0.7 -1.1 -1.2 -1.0 -0.7 -0.8 -1.4 -1.6 -1.5 -1.5 -1.3 -1.7 -1.2 -1.3 -0.7 0.1 0.8
0.0 -0.4 0.6 0.7 1.2 2.3 2.8 1.9 1.5 1.1 1.5 0.5 1.0 -0.2 -0.5 -0.7 -0.9 -1.4 -1.4 -0.8 -0.5 -0.7 -1.3 -1.1 -1.3 -0.6 -1.1 -1.2 -1.0 -0.7 -0.2 0.3
1.9 1.9 1.6 1.3 1.7 3.0 3.2 2.6 1.9 1.4 1.6 1.6 1.3 0.9 1.5 0.6 -1.3 -0.3 -1.4 -1.7 -1.5 -2.0 -1.8 -1.5 -0.9 -0.7 -1.3 -1.1 -1.0 -0.5 -0.3 0.1
2.7 2.6 1.9 1.5 2.5 3.3 3.8 2.8 1.8 1.3 1.1 1.0 1.1 1.4 1.6 1.5 -0.1 -0.1 -0.8 -1.2 -2.4 -0.8 -1.5 -0.5 -0.7 -0.8 -0.4 -1.0 -1.0 -0.6 -0.3 0.3
4.3 3.3 3.0 2.7 3.3 3.5 3.9 3.8 2.8 2.8 2.1 2.0 1.5 2.0 2.0 1.4 1.2 0.3 0.6 -0.2 -1.4 -1.6 -0.2 -0.8 0.0 0.3 2.0 0.1 -0.4 -0.2 0.3 0.4
4.8 5.0 4.4 4.1 3.7 3.8 4.0 4.0 4.6 4.7 3.9 3.3 2.7 2.8 2.2 1.3 0.8 0.2 1.3 1.2 -0.9 -0.3 -1.2 0.2 -0.6 0.1 0.1 0.9 1.0 1.0 1.2 1.2
2.0 5.0 5.7 5.0 4.7 4.5 4.8 4.7 4.6 4.5 4.3 3.5 2.9 2.6 2.1 1.8 0.9 0.2 0.0 0.8 0.1 -0.2 0.3 -0.1 -0.6 0.9 0.6 1.0 3.5 4.0 3.2 2.4
1.4 2.8 5.1 5.4 5.4 5.2 4.7 4.6 3.1 4.5 4.4 4.1 3.2 2.6 2.3 2.3 1.7 1.4 1.3 2.2 0.8 0.6 -0.2 1.7 -0.2 1.1 2.7 0.6 3.1 3.1 3.3 2.5
-0.6 0.1 1.5 1.7 3.3 4.8 4.7 4.9 5.1 4.7 4.8 4.2 3.3 3.1 2.5 2.3 2.0 2.3 1.7 2.0 1.5 1.6 0.4 1.8 2.0 1.4 0.9 1.3 -0.3 -0.1 3.2 3.7
0.8 1.5 2.0 1.8 3.0 3.6 4.8 4.9 5.3 5.2 4.7 4.0 3.2 2.6 3.0 2.5 2.2 1.4 1.4 1.3 1.5 2.1 1.8 2.4 2.8 2.4 2.1 0.2 -0.1 -0.1 0.2 0.9
1.4 2.0 2.6 2.1 2.3 1.6 1.1 3.3 4.8 4.9 4.1 3.5 2.9 2.6 2.9 2.8 1.6 1.1 1.1 1.3 1.9 1.8 1.8 1.8 2.1 3.3 2.8 1.3 0.7 0.8 0.3 -0.4
1.8 2.2 2.5 2.2 2.1 2.3 2.6 2.1 3.5 3.5 4.7 4.3 3.7 2.7 2.3 2.5 1.6 0.9 1.8 1.0 1.9 2.3 2.1 2.3 2.5 2.5 2.0 1.8 1.3 0.9 0.2 -0.1
1.7 2.2 2.4 2.8 2.9 2.7 3.2 4.3 3.9 3.2 2.5 4.0 4.0 4.5 3.9 3.3 2.0 3.1 3.0 2.5 3.2 3.1 3.1 2.3 2.9 2.5 2.0 2.0 1.4 0.7 1.3 1.0
Wind_Speed
13 16 17 20 20 20 18 17 17 18 19 20 20 18 17 18 18 18 16 15 16 19 22 26 26 25 24 24 23 20 19 16
12 16 15 15 16 21 21 19 18 18 19 20 20 18 17 17 18 17 18 15 16 17 19 23 24 24 24 23 22 20 20 17
10 12 13 17 17 18 21 21 20 19 18 20 20 13 16 16 15 17 16 15 15 18 20 22 22 22 21 20 17 17 17 15
11 11 12 15 14 15 16 16 16 16 13 15 14 14 14 16 15 17 16 15 16 18 21 23 19 16 17 17 17 18 17 15
14 14 13 14 9 11 12 14 15 16 16 16 15 12 11 12 13 13 15 15 16 17 20 15 16 15 14 15 17 17 16 14
13 15 16 14 11 8 13 10 16 13 17 18 14 9 7 8 8 10 12 16 13 15 13 15 16 16 16 15 14 15 15 13
14 14 15 14 13 9 9 11 11 15 16 17 16 10 5 7 7 10 10 13 13 11 12 11 11 13 13 13 12 13 14 14
15 17 15 13 13 13 10 11 15 14 13 14 17 17 10 6 4 6 8 12 13 13 10 9 8 11 9 11 12 13 14 13
18 18 15 16 17 13 10 9 12 7 12 18 19 17 16 12 5 5 9 13 11 11 10 9 7 8 7 9 10 12 13 13
9 9 13 15 15 11 10 9 8 8 11 15 16 15 16 12 8 7 13 15 11 5 6 5 5 6 5 5 6 10 11 12
12 14 15 16 13 10 11 12 11 10 14 15 18 19 20 14 9 9 17 10 8 6 3 7 7 5 6 5 4 4 8 9
11 12 15 14 10 10 10 10 11 10 9 11 19 18 19 14 8 8 13 9 7 8 8 2 6 8 7 5 3 3 5 6
9 11 15 11 11 12 12 14 11 10 9 13 17 19 21 13 8 9 9 10 12 12 5 9 3 6 6 3 3 3 4 2
14 10 13 12 11 11 11 11 10 11 11 13 18 19 21 16 14 11 14 11 12 12 12 5 3 10 4 4 3 1 1 3
7 7 9 10 13 9 8 7 3 8 11 12 15 17 17 19 20 16 17 14 14 18 18 17 8 9 13 5 3 4 4 1
9 9 9 8 11 11 14 12 13 14 13 11 12 17 18 18 19 20 18 14 15 16 15 15 12 16 5 2 3 5 4 3
8 7 9 9 7 5 11 14 13 12 10 13 13 13 18 20 18 19 18 15 15 16 15 16 12 13 11 4 3 2 3 3
6 8 7 8 8 9 13 16 14 12 11 11 10 10 12 18 19 18 20 18 19 18 19 21 17 15 13 9 7 4 4 3
6 7 6 6 7 8 8 7 8 13 10 8 11 10 9 14 16 16 17 22 20 20 20 20 19 15 15 11 7 4 4 3
6 6 7 5 4 4 4 4 1 1 4 3 5 5 3 3 4 7 11 12 11 8 11 12 13 11 15 10 7 4 4 4
Wind_Direction
174 173 158 155 161 160 164 166 166 161 159 157 155 159 150 143 143 153 154 151 139 134 134 135 131 127 123 118 118 119 116 113
169 174 171 163 164 165 168 172 172 165 159 152 158 154 151 150 154 159 154 152 141 137 136 136 133 131 128 125 122 121 117 112
172 178 173 176 176 172 173 177 177 172 163 157 154 154 153 152 158 157 157 153 143 143 142 135 129 125 123 118 112 113 111 107
183 184 183 183 182 177 172 178 178 181 173 163 157 153 161 161 164 160 159 153 142 144 144 138 127 128 128 122 121 122 118 116
189 186 187 186 183 182 177 180 182 186 176 167 157 149 167 164 162 162 158 155 142 142 141 136 128 125 124 121 122 121 121 118
188 191 189 188 184 187 187 188 186 186 181 167 160 158 171 166 163 162 160 162 144 139 141 137 130 132 132 126 126 126 123 116
200 196 196 194 186 191 197 199 197 193 180 172 167 161 170 169 165 161 164 166 154 143 141 141 135 131 128 129 128 127 124 118
190 196 200 197 204 196 196 199 199 192 183 182 172 165 164 166 164 165 160 176 167 151 149 148 139 136 123 128 129 127 126 123
201 198 197 199 200 200 200 200 193 191 187 178 177 175 171 164 161 171 172 174 164 141 123 119 120 122 119 117 122 126 127 126
217 209 215 213 207 204 206 201 192 190 186 186 180 175 174 173 162 183 176 163 161 143 136 121 129 134 130 125 119 120 123 124
199 201 206 204 213 220 222 214 204 193 184 184 184 179 181 178 177 181 174 175 154 155 141 143 143 131 134 122 117 122 128 130
212 198 207 208 208 214 219 218 217 208 202 200 183 185 188 185 179 173 177 167 160 147 151 114 147 145 130 101 89 97 114 134
209 214 214 198 200 204 212 217 220 216 212 203 193 192 183 184 184 160 176 184 169 167 134 146 115 134 115 77 53 91 123 153
9 282 224 216 210 221 220 225 221 219 209 200 200 195 188 181 178 193 182 188 172 170 153 150 130 170 143 123 145 347 192 181
12 16 314 247 231 223 226 230 213 204 212 211 208 199 199 191 184 183 182 189 184 186 167 175 156 188 175 144 152 188 130 171
342 8 40 41 340 241 221 222 221 227 222 219 206 205 201 203 194 191 191 189 186 193 178 178 169 175 187 191 118 146 157 149
339 352 15 347 31 298 249 231 238 237 226 216 207 207 209 201 202 194 193 188 190 187 179 175 182 178 178 153 131 121 116 143
340 340 352 7 16 31 48 350 267 232 229 214 214 209 217 211 202 201 196 197 187 183 184 181 180 187 181 179 165 161 163 146
327 333 332 346 14 16 22 34 6 0 338 263 241 211 208 216 209 204 222 191 189 182 179 184 180 178 176 174 163 157 136 125
312 310 311 325 4 17 2 38 41 44 34 304 21 317 242 232 182 282 264 223 195 175 183 167 174 168 167 169 154 150 138 143